Weather Roundup
Issued by NWS Corpus Christi, TX

Home | Current Version | Previous Version | Text Only | Print | Product List | Glossary On
Versions: 1 2 3 4 5 6 7 8 9 10 11 12 13 14 15 16 17 18 19 20 21 22 23 24 25 26 27 28 29 30 31 32 33 34 35 36 37 38 39 40 41 42 43 44 45 46 47 48 49 50
000
ASUS44 KCRP 181810
HRRCRP

SOUTH TEXAS REGIONAL WEATHER ROUNDUP
NATIONAL WEATHER SERVICE CORPUS CHRISTI TX
100 PM CDT FRI AUG 18 2017


TXZ229>244-181900-
...CORPUS CHRISTI AREA OBSERVATIONS...

CITY           SKY/WX    TMP DP  RH WIND       PRES   REMARKS
CORPUS CHRISTI NOT AVBL
NAS CORPUS CHR MOSUNNY   94  78  60 SE17      30.01F HX 110
ROCKPORT         N/A     93  75  55 S9        30.01F HX 104
KINGSVILLE ARP FAIR      98  71  42 S7        29.99F HX 106
KINGSVILLE NAS MOSUNNY   96  73  47 SW5       29.98F HX 105
ALICE          MOSUNNY   98  68  37 S10       29.98F HX 103
FALFURRIAS     MOSUNNY   97  70  41 CALM      29.97F HX 103
$$

...VICTORIA AREA OBSERVATIONS...

CITY           SKY/WX    TMP DP  RH WIND       PRES   REMARKS
PORT LAVACA    MOSUNNY   92  71  49 SW6       30.02F HX  99
VICTORIA       NOT AVBL
BEEVILLE       PTSUNNY   95  71  45 SE6       30.01F HX 102
PLEASANTON     SUNNY     95  67  39 S6        30.02F HX  99
SAN ANTONIO    NOT AVBL
$$

...LAREDO AREA OBSERVATIONS...

CITY           SKY/WX    TMP DP  RH WIND       PRES   REMARKS
LAREDO         SUNNY     98  71  41 SE12G17   29.98F HX 106
COTULLA        SUNNY     96  68  39 S8        29.99F HX 101
DEL RIO        MOSUNNY   90  73  57 VRB5      30.00F HX  98
MCALLEN        SUNNY    100  71  39 S10G17    29.97F HX 108
HEBBRONVILLE   SUNNY     94  67  41 S8G16     30.00F HX  98
$$

...OTHER TEXAS OBSERVATIONS...

CITY           SKY/WX    TMP DP  RH WIND       PRES   REMARKS
BROWNSVILLE    PTSUNNY   91  75  59 E7        29.99F HX 101
HOUSTON        MOSUNNY   94  75  54 SW8       30.03F HX 105
COL. STATION   MOSUNNY   92  73  53 SW5       30.03F HX 100
AUSTIN         MOSUNNY   94  71  47 S10G17    30.02F HX 101
WACO           SUNNY     93  70  46 VRB6      30.03F HX  99
FORT WORTH     CLOUDY    92  74  55 W10       30.03F HX 101
WICHITA FALLS  SUNNY     87  72  60 S8        30.03F HX  93
LUBBOCK        MOSUNNY   82  67  60 SE7       30.15F
EL PASO        NOT AVBL
$$

...MARINE OBSERVATIONS...

STATION/POSITION TIME  SKY/WX   TEMP    WIND        PRES    VSBY  WAVE   SWELL
                                AIR SEA DIR/SP/G                  HT/PER HT/PER
                 (UTC)          (F)     (DEG/KT/KT) (MB)    (MI)  (FT/S) (FT/S)
PORT ARANSAS     1700            84 86  130/  5/  6 1017.1S
BUOY 90 E PORT A 1650            86 86  170/  4/  4 1017.4          3/ 7   3/ 7
BUOY 45 SE BAFFI 1750            85     130/  6/  6 1015.7F         3/ 6   3/ 6
BUOY 200 E PT IS 1750            87 89  180/  2/  4 1017.3F         2/ 5   2/ 5
BUOY 15 E GALVES 1650            86 87  240/  4/  6 1017.8          2/ 5   2/ 5
$$




USA.gov is the U.S. government's official web portal to all federal, state and local government web resources and services.